Location: Newark
(45.8167°N, 8.7833°E)
Time: 21:05:33
(UTC+00:00)

OTV 5 (USA 277) - Visible Passes

Search period start: 22 August 2019 00:00
Search period end: 01 September 2019 00:00
Orbit: 305 x 329 km, 54.5° (Epoch: 20 August)

Date Brightness Start Highest point End Pass type
(mag) Time Alt. Az. Time Alt. Az. Time Alt. Az.
22 Aug ? 02:41:19 55° NNW 02:41:42 67° NE 02:44:19 10° ESE visible
23 Aug ? 02:57:33 22° SSE 02:57:33 22° SSE 02:58:45 10° SE visible
23 Aug ? 19:15:58 10° S 19:17:22 15° SE 19:17:22 15° SE visible
24 Aug ? 19:29:31 10° SSW 19:32:03 37° SE 19:33:12 24° E visible
24 Aug ? 21:04:05 10° W 21:04:10 10° W 21:04:10 10° W visible
25 Aug ? 19:43:51 10° WSW 19:46:33 79° NNW 19:48:20 19° NE visible
26 Aug ? 19:58:39 10° W 20:01:11 35° NNW 20:02:59 16° NE visible
27 Aug ? 18:38:43 10° SW 18:41:23 63° SE 18:44:03 10° ENE visible
27 Aug ? 20:13:46 10° WNW 20:15:55 21° NNW 20:17:20 14° NNE visible
28 Aug ? 18:53:18 10° WSW 18:55:57 51° NNW 18:58:36 10° NE visible
28 Aug ? 20:29:02 10° NW 20:30:45 15° NNW 20:31:29 14° N visible
29 Aug ? 19:08:16 10° W 19:10:38 26° NNW 19:12:59 10° NE visible
29 Aug ? 20:44:13 10° NW 20:45:30 13° N 20:45:30 13° N visible
30 Aug ? 19:23:29 10° WNW 19:25:26 17° NNW 19:27:22 10° NNE visible
30 Aug ? 20:59:04 10° NNW 20:59:26 11° NNW 20:59:26 11° NNW visible
31 Aug ? 19:38:45 10° NW 19:40:18 14° N 19:41:50 10° NNE visible
